Regional Weather Roundup
Issued by NWS New Orleans/Baton Rouge, LA

Home | Current Version | Previous Version | Graphics & Text | Print | Product List | Glossary On
Versions: 1 2 3 4 5 6 7 8 9 10 11 12 13 14 15 16 17 18 19 20 21 22 23 24 25 26 27 28 29 30 31 32 33 34 35 36 37 38 39 40 41 42 43 44 45 46 47 48 49 50
290
ASUS44 KLIX 202305
RWRLIX
NEW ORLEANS REGIONAL WEATHER ROUNDUP
NATIONAL WEATHER SERVICE NEW ORLEANS LA
600 PM CDT SUN APR 20 2014

NOTE: "FAIR" INDICATES FEW OR NO CLOUDS BELOW 12,000 FEET WITH NO
      SIGNIFICANT WEATHER AND/OR OBSTRUCTIONS TO VISIBILITY.
      SKY/WX - SKY CONDITION AND SIGNIFICANT WEATHER.
      TMP - AIR TEMPERATURE.     DP    - DEWPOINT TEMPERATURE.
      RH  - RELATIVE HUMIDITY.   PRES  - PRESSURE.
      HI  - HEAT INDEX.          WCI   - WIND CHILL INDEX.

*  THESE STATIONS ARE NOT NWS OR FAA STATIONS AND ARE NOT UNDER
   NWS QUALITY CONTROL.

LAZ038-040-048-061>063-065>067-069-210000-
SOUTHEAST LOUISIANA

CITY           SKY/WX    TMP DP  RH WIND       PRES   REMARKS
N.O. AUDUBON   NOT AVBL
N.O. INTL ARPT MOSUNNY   81  51  35 NE6       30.09F
N.O. LAKEFRONT SUNNY     77  55  46 W3        30.09F
N.O. DOWNTOWN*   N/A     81  50  34 CALM      30.09F
SLIDELL        SUNNY     78  53  41 S10       30.08F
BATON ROUGE    SUNNY     83  52  34 E5        30.08F
BOOTHVILLE     SUNNY     69  58  67 E7        30.12S
BELLE CHASSE   SUNNY    N/A N/A N/A SW8       30.09S
BOGALUSA*        N/A     82  47  28 E5        30.10F
GALLIANO*      CLEAR     76  62  61 SE6       30.10F
NEW ROADS*       N/A     81  50  34 SE3       30.08F
GONZALES*        N/A     81  52  36 E6        30.08F
HAMMOND*       SUNNY     81  48  32 S7        30.10S
HOUMA*         MOSUNNY   79  59  50 S6        30.09F
PORT FOURCHON* CLEAR     70  61  73 SE9       30.12F

$$

MSZ070-080>082-210000-
SOUTHERN MISSISSIPPI

CITY           SKY/WX    TMP DP  RH WIND       PRES   REMARKS
MCCOMB         SUNNY     80  47  31 E3        30.10S
GULFPORT       SUNNY     70  58  65 SE10      30.11S
BILOXI         SUNNY     68  57  68 S7        30.12S
PASCAGOULA     SUNNY     71  58  63 SW7       30.11S
STENNIS ARPT*  MOSUNNY   75  57  53 SE7       30.10F

$$

COASTAL OBSERVATIONS
LAKE AND NEARSHORE STATIONS

STATION/POSITION TIME  TEMP    WIND        PRES    WAVE
                       AIR SEA DIR/SP/G            HT/PER
                 (UTC) (F)     (DEG/KT/KT) (MB)    (FT/S)
PASCAGOULA       2300   69     170/  8/ 11 1019.2
WAVELAND YACHT   2300   66 70  150/ 10/ 12 1018.8
GRAND ISLE       2300   70 68  130/  6/  7 1020.0
SOUTHWEST PASS   2300   72 60   90/  9/ 10 1019.8
NEW CANAL        2300   78 69  320/  1/  2 1019.4
SHELL BEACH      2300   71 68  140/  8/  9 1019.2

OFFSHORE STATIONS

STATION/POSITION TIME  TEMP    WIND        PRES    WAVE
                       AIR SEA DIR/SP/G            HT/PER
                 (UTC) (F)     (DEG/KT/KT) (MB)    (FT/S)
64 S DAUPHIN ISL 2247   63 71   60/ 12/ 16 1020.1

$$




USA.gov is the U.S. government's official web portal to all federal, state and local government web resources and services.